| time (UTC) | temp C | wind direction | speed KPH | gust KPH | rain 1hr cm | rain 24hr cm | rain mn cm | humidity % | barometer mb |
| 20260507225347 | 9 | 150 | 6.4 | 9.7 | 0.00 | 0.00 | 0.00 | 84 | 1016.2 |
| 20260507225247 | 9 | 149 | 6.4 | 9.7 | 0.00 | 0.00 | 0.00 | 84 | 1016.1 |
| 20260507223747 | 9 | 154 | 6.4 | 9.7 | 0.00 | 0.00 | 0.00 | 85 | 1016.1 |
| 20260507222347 | 9 | 153 | 6.4 | 9.7 | 0.00 | 0.00 | 0.00 | 84 | 1016.4 |
| 20260507222247 | 9 | 152 | 8.0 | 9.7 | 0.00 | 0.00 | 0.00 | 84 | 1016.2 |
| 20260507220747 | 10 | 151 | 6.4 | 9.7 | 0.00 | 0.00 | 0.00 | 83 | 1010.4 |
| 20260507215347 | 10 | 154 | 6.4 | 9.7 | 0.00 | 0.00 | 0.00 | 84 | 1010.3 |
| 20260507215247 | 10 | 153 | 6.4 | 9.7 | 0.00 | 0.00 | 0.00 | 84 | 1016.3 |
| 20260507213747 | 10 | 153 | 6.4 | 9.7 | 0.00 | 0.00 | 0.00 | 83 | 1016.6 |
| 20260507212347 | 10 | 153 | 6.4 | 8.0 | 0.00 | 0.00 | 0.00 | 82 | 1010.7 |
| 20260507212247 | 10 | 152 | 6.4 | 8.0 | 0.00 | 0.00 | 0.00 | 81 | 1010.7 |
| 20260507210747 | 11 | 155 | 8.0 | 9.7 | 0.00 | 0.00 | 0.00 | 79 | 1010.7 |
| 20260507205347 | 11 | 154 | 8.0 | 12.9 | 0.00 | 0.00 | 0.00 | 78 | 1010.6 |
| 20260507205247 | 11 | 157 | 8.0 | 12.9 | 0.00 | 0.00 | 0.00 | 78 | 1010.6 |
| 20260507203748 | 11 | 153 | 8.0 | 9.7 | 0.00 | 0.00 | 0.00 | 79 | 1010.5 |
| 20260507202347 | 11 | 153 | 8.0 | 11.3 | 0.00 | 0.00 | 0.00 | 77 | 1016.4 |
| 20260507202247 | 11 | 153 | 8.0 | 11.3 | 0.00 | 0.00 | 0.00 | 77 | 1016.3 |
| 20260507200748 | 11 | 159 | 8.0 | 9.7 | 0.00 | 0.00 | 0.00 | 75 | 1010.0 |
| 20260507195347 | 11 | 155 | 8.0 | 9.7 | 0.00 | 0.00 | 0.00 | 71 | 1009.8 |
| 20260507195247 | 11 | 156 | 8.0 | 9.7 | 0.00 | 0.00 | 0.00 | 71 | 1009.8 |
| 20260507193748 | 11 | 160 | 6.4 | 9.7 | 0.00 | 0.00 | 0.00 | 70 | 1009.4 |
| 20260507192347 | 12 | 155 | 8.0 | 11.3 | 0.00 | 0.00 | 0.00 | 69 | 1009.4 |
| 20260507192247 | 12 | 156 | 8.0 | 11.3 | 0.00 | 0.00 | 0.00 | 69 | 1009.2 |
| 20260507190748 | 12 | 153 | 8.0 | 9.7 | 0.00 | 0.00 | 0.00 | 66 | 1009.3 |
| 20260507185347 | 13 | 153 | 8.0 | 9.7 | 0.00 | 0.00 | 0.00 | 62 | 1009.2 |
| 20260507185247 | 13 | 154 | 8.0 | 9.7 | 0.00 | 0.00 | 0.00 | 62 | 1009.2 |
| 20260507183748 | 14 | 157 | 8.0 | 9.7 | 0.00 | 0.00 | 0.00 | 59 | 1015.5 |
| 20260507182347 | 14 | 157 | 6.4 | 9.7 | 0.00 | 0.00 | 0.00 | 61 | 1009.3 |
| 20260507182247 | 14 | 157 | 8.0 | 9.7 | 0.00 | 0.00 | 0.00 | 60 | 1009.3 |
| 20260507180748 | 14 | 159 | 6.4 | 11.3 | 0.00 | 0.00 | 0.00 | 61 | 1009.2 |
| 20260507175347 | 15 | 164 | 8.0 | 12.9 | 0.00 | 0.00 | 0.00 | 58 | 1015.6 |
| 20260507175247 | 15 | 164 | 8.0 | 12.9 | 0.00 | 0.00 | 0.00 | 58 | 1015.4 |
| 20260507173748 | 16 | 159 | 8.0 | 11.3 | 0.00 | 0.00 | 0.00 | 55 | 1015.4 |
| 20260507172347 | 16 | 166 | 6.4 | 11.3 | 0.00 | 0.00 | 0.00 | 54 | 1015.6 |
| 20260507172247 | 16 | 165 | 6.4 | 11.3 | 0.00 | 0.00 | 0.00 | 54 | 1015.5 |
| 20260507170748 | 16 | 163 | 6.4 | 9.7 | 0.00 | 0.00 | 0.00 | 51 | 1009.3 |
| 20260507165347 | 16 | 162 | 6.4 | 11.3 | 0.00 | 0.00 | 0.00 | 54 | 1009.4 |
| 20260507165247 | 15 | 162 | 6.4 | 11.3 | 0.00 | 0.00 | 0.00 | 54 | 1009.3 |
| 20260507163748 | 15 | 161 | 8.0 | 12.9 | 0.00 | 0.00 | 0.00 | 59 | 1009.4 |
| 20260507162347 | 15 | 162 | 6.4 | 12.9 | 0.00 | 0.00 | 0.00 | 57 | 1009.2 |
| 20260507162247 | 15 | 163 | 6.4 | 14.5 | 0.00 | 0.00 | 0.00 | 56 | 1009.4 |
| 20260507160748 | 15 | 162 | 8.0 | 14.5 | 0.00 | 0.00 | 0.00 | 57 | 1009.5 |
| 20260507155347 | 15 | 159 | 8.0 | 12.9 | 0.00 | 0.00 | 0.00 | 57 | 1009.8 |
| 20260507155247 | 15 | 160 | 8.0 | 12.9 | 0.00 | 0.00 | 0.00 | 57 | 1009.9 |
| 20260507153748 | 15 | 162 | 6.4 | 12.9 | 0.00 | 0.00 | 0.00 | 55 | 1009.8 |
| 20260507152347 | 16 | 163 | 8.0 | 14.5 | 0.00 | 0.00 | 0.00 | 55 | 1009.9 |
| 20260507152247 | 16 | 166 | 8.0 | 14.5 | 0.00 | 0.00 | 0.00 | 54 | 1009.6 |
| 20260507150748 | 15 | 163 | 6.4 | 14.5 | 0.00 | 0.00 | 0.00 | 56 | 1009.5 |
| 20260507145347 | 16 | 162 | 8.0 | 12.9 | 0.00 | 0.00 | 0.00 | 51 | 1009.6 |
| 20260507145247 | 16 | 162 | 8.0 | 12.9 | 0.00 | 0.00 | 0.00 | 51 | 1009.6 |
| 20260507143748 | 16 | 165 | 8.0 | 17.7 | 0.00 | 0.00 | 0.00 | 51 | 1009.6 |
| 20260507142347 | 16 | 163 | 8.0 | 14.5 | 0.00 | 0.00 | 0.00 | 52 | 1009.8 |
| 20260507142247 | 16 | 162 | 8.0 | 14.5 | 0.00 | 0.00 | 0.00 | 52 | 1009.9 |
| 20260507140748 | 16 | 155 | 8.0 | 12.9 | 0.00 | 0.00 | 0.00 | 54 | 1009.9 |
| 20260507135347 | 17 | 151 | 8.0 | 16.1 | 0.00 | 0.00 | 0.00 | 51 | 1009.9 |
| 20260507135247 | 16 | 152 | 8.0 | 16.1 | 0.00 | 0.00 | 0.00 | 53 | 1009.9 |
| 20260507133748 | 16 | 161 | 8.0 | 16.1 | 0.00 | 0.00 | 0.00 | 53 | 1009.9 |
| 20260507132347 | 16 | 161 | 8.0 | 16.1 | 0.00 | 0.00 | 0.00 | 55 | 1009.8 |
| 20260507132247 | 16 | 161 | 6.4 | 16.1 | 0.00 | 0.00 | 0.00 | 55 | 1009.8 |
| 20260507130748 | 16 | 165 | 8.0 | 16.1 | 0.00 | 0.00 | 0.00 | 55 | 1009.9 |
| 20260507125347 | 16 | 153 | 6.4 | 16.1 | 0.00 | 0.00 | 0.00 | 53 | 1009.8 |
| 20260507125247 | 16 | 154 | 8.0 | 14.5 | 0.00 | 0.00 | 0.00 | 53 | 1010.0 |
| 20260507123748 | 16 | 163 | 6.4 | 16.1 | 0.00 | 0.00 | 0.00 | 53 | 1010.1 |
| 20260507122347 | 16 | 162 | 8.0 | 14.5 | 0.00 | 0.00 | 0.00 | 52 | 1010.0 |
| 20260507122247 | 16 | 160 | 8.0 | 14.5 | 0.00 | 0.00 | 0.00 | 52 | 1010.0 |
| 20260507120748 | 16 | 159 | 8.0 | 14.5 | 0.00 | 0.00 | 0.00 | 51 | 1016.2 |
| 20260507115347 | 16 | 166 | 8.0 | 16.1 | 0.00 | 0.00 | 0.00 | 51 | 1010.0 |
| 20260507115247 | 16 | 167 | 8.0 | 16.1 | 0.00 | 0.00 | 0.00 | 50 | 1010.0 |
| 20260507113748 | 16 | 159 | 8.0 | 16.1 | 0.00 | 0.00 | 0.00 | 52 | 1010.3 |
| 20260507112347 | 16 | 156 | 8.0 | 12.9 | 0.00 | 0.00 | 0.00 | 51 | 1010.1 |
| 20260507112247 | 16 | 156 | 8.0 | 12.9 | 0.00 | 0.00 | 0.00 | 52 | 1010.1 |
| 20260507110748 | 15 | 160 | 8.0 | 12.9 | 0.00 | 0.00 | 0.00 | 55 | 1010.1 |
| 20260507105947 | 15 | 161 | 8.0 | 12.9 | 0.00 | 0.00 | 0.00 | 55 | 1010.4 |
| 20260507105548 | 15 | 154 | 8.0 | 12.9 | 0.00 | 0.00 | 0.00 | 58 | 1010.2 |
| 20260507105347 | 15 | 153 | 8.0 | 12.9 | 0.00 | 0.00 | 0.00 | 55 | 1010.4 |
| 20260507105337 | 15 | 153 | 8.0 | 12.9 | 0.00 | 0.00 | 0.00 | 55 | 1010.4 |
| 20260507105328 | 15 | 153 | 8.0 | 12.9 | 0.00 | 0.00 | 0.00 | 55 | 1010.4 |
| 20260507104917 | 15 | 155 | 8.0 | 12.9 | 0.00 | 0.00 | 0.00 | 56 | 1010.4 |
| 20260507103517 | 15 | 157 | 8.0 | 16.1 | 0.00 | 0.00 | 0.00 | 60 | 1010.5 |
| 20260507103417 | 15 | 157 | 8.0 | 16.1 | 0.00 | 0.00 | 0.00 | 60 | 1010.6 |
| 20260507101917 | 14 | 157 | 6.4 | 12.9 | 0.00 | 0.00 | 0.00 | 59 | 1010.5 |
| 20260507100517 | 15 | 160 | 8.0 | 14.5 | 0.00 | 0.00 | 0.00 | 58 | 1010.5 |
| 20260507100417 | 15 | 160 | 8.0 | 14.5 | 0.00 | 0.00 | 0.00 | 58 | 1010.5 |
| 20260507094917 | 15 | 157 | 8.0 | 14.5 | 0.00 | 0.00 | 0.00 | 57 | 1010.4 |
| 20260507093517 | 15 | 161 | 9.7 | 16.1 | 0.00 | 0.00 | 0.00 | 56 | 1010.6 |
| 20260507093417 | 15 | 161 | 8.0 | 16.1 | 0.00 | 0.00 | 0.00 | 56 | 1010.4 |
| 20260507091917 | 15 | 157 | 8.0 | 12.9 | 0.00 | 0.00 | 0.00 | 55 | 1010.3 |
| 20260507090517 | 15 | 160 | 8.0 | 12.9 | 0.00 | 0.00 | 0.00 | 57 | 1010.5 |
| 20260507090417 | 15 | 159 | 8.0 | 12.9 | 0.00 | 0.00 | 0.00 | 57 | 1010.3 |
| 20260507084917 | 14 | 158 | 8.0 | 12.9 | 0.00 | 0.00 | 0.00 | 58 | 1010.6 |
| 20260507083517 | 14 | 157 | 8.0 | 12.9 | 0.00 | 0.00 | 0.00 | 58 | 1010.4 |
| 20260507083417 | 14 | 155 | 8.0 | 12.9 | 0.00 | 0.00 | 0.00 | 58 | 1010.3 |
| 20260507081917 | 15 | 159 | 6.4 | 12.9 | 0.00 | 0.00 | 0.00 | 58 | 1010.3 |
| 20260507080517 | 14 | 155 | 8.0 | 11.3 | 0.00 | 0.00 | 0.00 | 60 | 1010.3 |
| 20260507080417 | 14 | 155 | 8.0 | 11.3 | 0.00 | 0.00 | 0.00 | 60 | 1010.4 |
| 20260507074917 | 13 | 148 | 8.0 | 11.3 | 0.00 | 0.00 | 0.00 | 63 | 1010.2 |
| 20260507073517 | 12 | 157 | 8.0 | 11.3 | 0.00 | 0.00 | 0.00 | 67 | 1010.4 |
| 20260507073417 | 13 | 157 | 8.0 | 11.3 | 0.00 | 0.00 | 0.00 | 68 | 1010.3 |
| 20260507071917 | 12 | 156 | 8.0 | 12.9 | 0.00 | 0.00 | 0.00 | 72 | 1010.1 |
| 20260507070517 | 11 | 155 | 6.4 | 9.7 | 0.00 | 0.00 | 0.00 | 77 | 1016.0 |
| 20260507070417 | 11 | 155 | 6.4 | 9.7 | 0.00 | 0.00 | 0.00 | 78 | 1010.1 |
| 20260507064917 | 10 | 156 | 6.4 | 9.7 | 0.00 | 0.00 | 0.00 | 80 | 1015.8 |
| 20260507063517 | 10 | 152 | 6.4 | 11.3 | 0.00 | 0.00 | 0.00 | 82 | 1015.7 |
| 20260507063417 | 10 | 151 | 6.4 | 11.3 | 0.00 | 0.00 | 0.00 | 82 | 1015.7 |
| 20260507061917 | 8 | 153 | 6.4 | 8.0 | 0.00 | 0.00 | 0.00 | 87 | 1009.9 |
| 20260507060517 | 8 | 152 | 6.4 | 8.0 | 0.00 | 0.00 | 0.00 | 88 | 1009.7 |
| 20260507060417 | 8 | 152 | 6.4 | 8.0 | 0.00 | 0.00 | 0.00 | 88 | 1009.7 |
| 20260507054917 | 7 | 151 | 6.4 | 9.7 | 0.00 | 0.00 | 0.00 | 89 | 1015.6 |
| 20260507053517 | 7 | 148 | 6.4 | 8.0 | 0.00 | 0.00 | 0.00 | 89 | 1015.5 |
| 20260507053417 | 7 | 147 | 6.4 | 8.0 | 0.00 | 0.00 | 0.00 | 89 | 1015.5 |
| 20260507051917 | 7 | 151 | 8.0 | 9.7 | 0.00 | 0.00 | 0.00 | 88 | 1015.5 |
| 20260507050517 | 7 | 145 | 6.4 | 9.7 | 0.00 | 0.00 | 0.00 | 88 | 1009.4 |
| 20260507050417 | 7 | 143 | 6.4 | 8.0 | 0.00 | 0.00 | 0.00 | 88 | 1009.4 |
| 20260507044917 | 7 | 141 | 6.4 | 9.7 | 0.00 | 0.00 | 0.00 | 88 | 1009.6 |
| 20260507043517 | 7 | 147 | 6.4 | 8.0 | 0.00 | 0.00 | 0.00 | 87 | 1015.1 |
| 20260507043417 | 7 | 146 | 6.4 | 8.0 | 0.00 | 0.00 | 0.00 | 87 | 1015.2 |
| 20260507041917 | 7 | 139 | 6.4 | 8.0 | 0.00 | 0.00 | 0.00 | 87 | 1015.3 |
| 20260507040517 | 7 | 142 | 6.4 | 8.0 | 0.00 | 0.00 | 0.00 | 87 | 1009.1 |
| 20260507040417 | 7 | 142 | 6.4 | 8.0 | 0.00 | 0.00 | 0.00 | 87 | 1009.1 |
| 20260507034917 | 7 | 131 | 6.4 | 9.7 | 0.00 | 0.00 | 0.00 | 87 | 1009.3 |
| 20260507033517 | 7 | 133 | 6.4 | 9.7 | 0.00 | 0.00 | 0.00 | 88 | 1009.1 |
| 20260507033417 | 7 | 133 | 6.4 | 9.7 | 0.00 | 0.00 | 0.00 | 88 | 1009.1 |
| 20260507031917 | 7 | 139 | 6.4 | 8.0 | 0.00 | 0.00 | 0.00 | 87 | 1009.2 |
| 20260507030517 | 7 | 134 | 6.4 | 9.7 | 0.00 | 0.00 | 0.00 | 87 | 1015.2 |
| 20260507030417 | 7 | 136 | 6.4 | 9.7 | 0.00 | 0.00 | 0.00 | 87 | 1015.0 |
| 20260507024917 | 7 | 136 | 6.4 | 9.7 | 0.00 | 0.00 | 0.00 | 86 | 1009.0 |
| 20260507023517 | 7 | 138 | 6.4 | 8.0 | 0.00 | 0.00 | 0.00 | 85 | 1014.9 |
| 20260507023417 | 7 | 137 | 6.4 | 8.0 | 0.00 | 0.00 | 0.00 | 85 | 1015.0 |
| 20260507021917 | 7 | 146 | 6.4 | 9.7 | 0.00 | 0.00 | 0.00 | 85 | 1008.9 |
| 20260507020517 | 7 | 147 | 6.4 | 8.0 | 0.00 | 0.00 | 0.00 | 84 | 1014.9 |
| 20260507020417 | 7 | 147 | 6.4 | 8.0 | 0.00 | 0.00 | 0.00 | 84 | 1014.8 |
| 20260507014917 | 8 | 147 | 6.4 | 8.0 | 0.00 | 0.00 | 0.00 | 83 | 1008.7 |
| 20260507013517 | 8 | 148 | 6.4 | 8.0 | 0.00 | 0.00 | 0.00 | 82 | 1014.9 |
| 20260507013417 | 8 | 149 | 6.4 | 8.0 | 0.00 | 0.00 | 0.00 | 82 | 1014.7 |
| 20260507011917 | 8 | 149 | 6.4 | 8.0 | 0.00 | 0.00 | 0.00 | 81 | 1008.7 |
| 20260507010517 | 8 | 148 | 6.4 | 8.0 | 0.00 | 0.00 | 0.00 | 80 | 1008.7 |
| 20260507010417 | 8 | 147 | 6.4 | 8.0 | 0.00 | 0.00 | 0.00 | 80 | 1008.7 |
| 20260507004917 | 9 | 148 | 6.4 | 8.0 | 0.00 | 0.00 | 0.00 | 79 | 1008.9 |
| 20260507003517 | 9 | 146 | 6.4 | 8.0 | 0.00 | 0.00 | 0.00 | 77 | 1008.9 |
| 20260507003417 | 9 | 145 | 6.4 | 8.0 | 0.00 | 0.00 | 0.00 | 77 | 1008.9 |
| 20260507001917 | 10 | 146 | 6.4 | 8.0 | 0.00 | 0.00 | 0.00 | 77 | 1008.7 |
| 20260507000517 | 10 | 150 | 6.4 | 8.0 | 0.00 | 0.00 | 0.00 | 76 | 1014.8 |
| 20260507000417 | 10 | 149 | 6.4 | 8.0 | 0.00 | 0.00 | 0.00 | 75 | 1015.0 |
| 20260506234917 | 10 | 149 | 6.4 | 8.0 | 0.00 | 0.00 | 0.00 | 73 | 1015.0 |
| 20260506233517 | 10 | 150 | 6.4 | 8.0 | 0.00 | 0.00 | 0.00 | 72 | 1009.0 |
| 20260506233417 | 10 | 150 | 6.4 | 9.7 | 0.00 | 0.00 | 0.00 | 72 | 1014.8 |
| 20260506231917 | 10 | 152 | 8.0 | 9.7 | 0.00 | 0.00 | 0.00 | 72 | 1014.7 |
| 20260506230517 | 10 | 153 | 6.4 | 9.7 | 0.00 | 0.00 | 0.00 | 71 | 1014.7 |
| 20260506230417 | 10 | 153 | 6.4 | 9.7 | 0.00 | 0.00 | 0.00 | 71 | 1014.7 |